ELEKTRON 1 DEB *, 18589

Orbit data source: Space-Track

ELEKTRON 1 DEB *, 18589 is space debris in LEO originally from a launch on Thu, 30 Jan 1964 UTC launched from the Tyuratam Missile And Space Complex (TTMTR). Debris objects in space refer to the collection of defunct objects orbiting the Earth. Examples of debris include non-operational satellites, rocket bodies, and fragments generated from explosions, collisions, or faulty payload assembly.

Loading next visibility...
Identifier
18589, 1964-006N
Orbit
LEO
Country
Flag of CISCIS
Related business
Manufacturer
Unknown
Mission
Spacecraft
Bus & Motor
Unknown
Mass
Unknown
Launch date (UTC)
1964-01-30 (62 years ago)
Launch vehicle
Unknown
Launch site
Tyuratam Missile And Space Complex (TTMTR)
Object type
Payload
Rocket body
Debris
Shape & HBR
Unknown shape, 0.1 m
Radar Cross Section
Small (<0.1 m²)

Expand to show TLE details & history
Last TLE update: 2 weeks ago

TLE from 2 weeks ago
0 ELEKTRON 1 DEB *
1 18589U 64006N   25329.13612805  .00000443  00000-0  22861-2 0  9996
2 18589  58.9361 285.4666 2051607 292.1541  47.4676  9.96552058418632
Epoch: 2025-11-25T03:16Z
TLE epoch observation values (Epoch: 2025-11-25T03:16:01.463Z)
Latitude
-0.00005°
Longitude
172.13439°
Altitude
1,735.536 km
Speed
7.388 km/s
True Right ascension
19h 01m 51s
True Declination
0° 00' 00"
Sunlit
Object was in daylight at epoch
Visualization orbit readout
Latitude
Unknown
Longitude
Unknown
Altitude
Unknown
Speed
Unknown
Apparent Right ascension
Unknown
Apparent Declination
Unknown
Sunlit
N/A
Visualization observer readout
Local Sidereal Time
04:08:07
Azimuth
Unknown
Elevation
Unknown
Doppler factor
Unknown
Orbital elements
Apogee altitude
4,614.176 km
Perigee altitude
871.62 km
Semi-major axis
9,121.035 km
Eccentricity
0.20516
Inclination
58.9361°
RAAN
285.4666°
Arg. of periapsis
292.1541°
True anomaly
67.93497°
Mean anomaly
47.4676°
Eccentric anomaly
57.36683°
Mean motion
2.49159 °/min
Orbital period
144.49 mins
BSTAR
0.0022861
Loading maneuver chart data...
Computing Atmospheric mass density...

Documentation

Showing up to 5 results
|